Fond du Lac, WI

12:32 AM CDT on April 27, 2017 (GMT -0500)
Fond du Lac County

Weather History for KFLD - February, 2013

Change the Weather History Date:

Thursday, February 21, 2013

  Actual Average Record
Temperature  
Mean Temperature 17 °F -  
Max Temperature 26 °F 32 °F 59 °F (2017)
Min Temperature 8 °F 17 °F -15 °F (1963)
Degree Days  
Heating Degree Days 48    
Moisture  
Dew Point 14 °F    
Average Humidity 79    
Maximum Humidity 88    
Minimum Humidity 69    
Precipitation  
Precipitation 0.00 in - - ()
Sea Level Pressure  
Sea Level Pressure 30.32 in    
Wind  
Wind Speed 10 mph (NE)    
Max Wind Speed 20 mph    
Max Gust Speed 26 mph    
Visibility 9 miles    
Events Snow    
Averages and records for this station are not official NWS values.
T = Trace of Precipitation, MM = Missing Value Source: NWS Daily Summary

Daily Weather History Graph

Daily Weather History Graph

Search for Another Location

Airport or City:

Trip Planner

Search our weather history database for the weather conditions in past years. The results will help you decide how hot, cold, wet, or windy it might be!

Date:

Astronomy

Feb. 21, 2013 Rise Set
Actual Time 6:43 AM CST 5:32 PM CST
Civil Twilight 6:14 AM CST 6:01 PM CST
Nautical Twilight 5:40 AM CST 6:35 PM CST
Astronomical Twilight 5:07 AM CST 7:08 PM CST
Moon 1:42 PM CST (2/21) 3:53 AM CST (2/21)
Length of Visible Light 11h 47m
Length of Day
10h 49m
Waxing Gibbous, 84% of the Moon is Illuminated
Feb 21
Waxing Gibbous
Feb 25
Full
Mar 4
Last Quarter
Mar 11
New
Mar 19
First Quarter

Hourly Weather History & Observations

Time (CST) Temp. Windchill Dew Point Humidity Pressure Visibility Wind Dir Wind Speed Gust Speed Precip Events Conditions
12:53 AM 10.9 °F 1.4 °F 3.9 °F 73% 30.44 in 10.0 mi NNE 5.8 mph - N/A   Clear
1:53 AM 9.0 °F 2.4 °F 3.0 °F 77% 30.44 in 10.0 mi North 3.5 mph - N/A   Clear
2:53 AM 9.0 °F 0.6 °F 1.9 °F 73% 30.43 in 10.0 mi North 4.6 mph - N/A   Clear
4:13 AM 8.6 °F - 3.2 °F 79% 30.40 in 10.0 mi Calm Calm - N/A   Mostly Cloudy
6:14 AM 10.4 °F -4.8 °F 3.2 °F 73% 30.38 in 10.0 mi NNE 12.7 mph - N/A   Overcast
6:53 AM 10.9 °F -5.4 °F 5.0 °F 77% 30.39 in 10.0 mi NNE 15.0 mph - N/A   Overcast
7:53 AM 12.9 °F 6.9 °F 7.0 °F 77% 30.45 in 4.0 mi North 3.5 mph - 0.00 in Snow Light Snow
8:53 AM 15.1 °F 3.3 °F 9.0 °F 77% 30.45 in 5.0 mi NNE 9.2 mph - 0.00 in Snow Light Snow
9:53 AM 17.1 °F 5.0 °F 10.9 °F 77% 30.45 in 10.0 mi North 10.4 mph - 0.00 in   Overcast
10:53 AM 17.1 °F 5.0 °F 10.9 °F 77% 30.44 in 10.0 mi NNE 10.4 mph - 0.00 in   Overcast
11:53 AM 18.0 °F 6.1 °F 12.0 °F 78% 30.43 in 10.0 mi NE 10.4 mph - N/A   Overcast
12:33 PM 19.4 °F 7.9 °F 12.2 °F 74% 30.36 in 10.0 mi NNE 10.4 mph - N/A   Overcast
12:53 PM 19.9 °F 6.2 °F 14.0 °F 78% 30.38 in 10.0 mi NNE 15.0 mph - N/A   Overcast
1:53 PM 21.0 °F 7.6 °F 17.1 °F 85% 30.35 in 10.0 mi NNE 15.0 mph - N/A   Overcast
2:53 PM 21.9 °F 8.2 °F 18.0 °F 85% 30.32 in 10.0 mi NE 16.1 mph - N/A   Overcast
3:53 PM 23.0 °F 11.7 °F 19.0 °F 85% 30.33 in 8.0 mi NE 11.5 mph - N/A   Overcast
4:53 PM 23.0 °F 10.1 °F 19.9 °F 88% 30.31 in 9.0 mi NE 15.0 mph - N/A   Overcast
5:14 PM 23.0 °F 8.7 °F 19.4 °F 86% 30.25 in 7.0 mi NE 18.4 mph - N/A   Overcast
5:53 PM 23.0 °F 10.1 °F 19.9 °F 88% 30.29 in 9.0 mi NE 15.0 mph 21.9 mph N/A   Overcast
6:53 PM 25.0 °F 12.2 °F 21.0 °F 85% 30.27 in 10.0 mi East 16.1 mph 24.2 mph N/A   Overcast
7:02 PM 24.8 °F 10.7 °F 21.2 °F 86% 30.22 in 10.0 mi ENE 19.6 mph 26.5 mph N/A   Overcast
7:53 PM 25.0 °F 11.3 °F 19.9 °F 81% 30.25 in 10.0 mi East 18.4 mph 26.5 mph 0.00 in   Overcast
8:53 PM 25.0 °F 13.1 °F 19.9 °F 81% 30.20 in 10.0 mi ENE 13.8 mph - N/A   Overcast
9:05 PM 24.8 °F 14.0 °F 19.4 °F 80% 30.15 in 10.0 mi ENE 11.5 mph - N/A   Overcast
9:31 PM 24.8 °F 14.0 °F 19.4 °F 80% 30.13 in 10.0 mi ENE 11.5 mph 20.7 mph N/A   Overcast
9:53 PM 25.0 °F 13.1 °F 19.0 °F 78% 30.17 in 10.0 mi ENE 13.8 mph - N/A   Overcast
10:53 PM 26.1 °F 13.1 °F 17.1 °F 69% 30.14 in 10.0 mi ENE 17.3 mph 24.2 mph N/A   Overcast
11:53 PM 25.0 °F 13.1 °F 16.0 °F 69% 30.14 in 10.0 mi East 13.8 mph 20.7 mph N/A   Overcast